| time (UTC) | temp F | wind direction | speed knots | gust knots | rain 1hr in | rain 24hr in | rain mn in | humidity % | barometer mb |
| 20260506011532 | 50 | 285 | 0.9 | 6.1 | 0.00 | 0.06 | 0.00 | 1 | 1006.1 |
| 20260506010009 | 50 | 254 | 1.7 | 5.2 | 0.00 | 0.06 | 0.00 | 1 | 1006.4 |
| 20260506003002 | 50 | 263 | 0.0 | 3.5 | 0.00 | 0.06 | 0.00 | 1 | 1006.5 |
| 20260506001601 | 49 | 218 | 0.9 | 2.6 | 0.00 | 0.06 | 0.00 | 1 | 1006.9 |
| 20260506000057 | 49 | 232 | 1.7 | 4.3 | 0.00 | 0.06 | 0.00 | 1 | 1007.3 |
| 20260505234648 | 49 | 219 | 0.9 | 2.6 | 0.00 | 0.06 | 0.00 | 1 | 1007.1 |
| 20260505233047 | 49 | 240 | 0.9 | 2.6 | 0.00 | 0.06 | 0.00 | 1 | 1007.1 |
| 20260505231544 | 50 | 267 | 0.9 | 3.5 | 0.00 | 0.06 | 0.00 | 1 | 1007.2 |
| 20260505230037 | 50 | 218 | 0.0 | 3.5 | 0.00 | 0.06 | 0.00 | 1 | 1007.4 |
| 20260505224636 | 51 | 243 | 2.6 | 7.8 | 0.00 | 0.06 | 0.00 | 1 | 1007.4 |
| 20260505223032 | 51 | 239 | 0.9 | 3.5 | 0.00 | 0.06 | 0.00 | 1 | 1007.4 |
| 20260505221524 | 51 | 217 | 0.0 | 5.2 | 0.00 | 0.06 | 0.00 | 1 | 1007.3 |
| 20260505220042 | 50 | 250 | 0.0 | 6.1 | 0.00 | 0.06 | 0.00 | 1 | 1007.4 |
| 20260505214621 | 50 | 243 | 1.7 | 5.2 | 0.00 | 0.06 | 0.06 | 1 | 1007.8 |
| 20260505213022 | 51 | 241 | 1.7 | 4.3 | 0.00 | 0.06 | 0.06 | 1 | 1007.8 |
| 20260505211618 | 50 | 223 | 2.6 | 6.1 | 0.00 | 0.06 | 0.06 | 1 | 1008.0 |
| 20260505210018 | 50 | 229 | 3.5 | 6.1 | 0.00 | 0.06 | 0.06 | 1 | 1007.9 |
| 20260505204618 | 50 | 231 | 1.7 | 3.5 | 0.00 | 0.06 | 0.06 | 1 | 1007.8 |
| 20260505203021 | 50 | 231 | 0.9 | 6.1 | 0.00 | 0.06 | 0.06 | 1 | 1007.9 |
| 20260505201519 | 49 | 241 | 0.9 | 4.3 | 0.00 | 0.06 | 0.06 | 1 | 1007.7 |
| 20260505200019 | 49 | 250 | 1.7 | 6.1 | 0.00 | 0.06 | 0.06 | 1 | 1007.7 |
| 20260505194618 | 49 | 241 | 1.7 | 7.0 | 0.00 | 0.06 | 0.06 | 1 | 1007.5 |
| 20260505193025 | 50 | 248 | 3.5 | 7.0 | 0.00 | 0.06 | 0.06 | 1 | 1007.3 |
| 20260505191519 | 50 | 236 | 2.6 | 7.0 | 0.00 | 0.06 | 0.06 | 1 | 1007.2 |
| 20260505190011 | 50 | 235 | 3.5 | 7.8 | 0.00 | 0.06 | 0.06 | 1 | 1007.1 |
| 20260505184607 | 50 | 245 | 2.6 | 6.1 | 0.00 | 0.06 | 0.06 | 1 | 1007.0 |
| 20260505183005 | 51 | 205 | 2.6 | 4.3 | 0.00 | 0.06 | 0.06 | 1 | 1007.0 |
| 20260505181504 | 51 | 218 | 0.0 | 5.2 | 0.00 | 0.06 | 0.06 | 1 | 1007.2 |
| 20260505180004 | 51 | 239 | 3.5 | 6.1 | 0.01 | 0.06 | 0.06 | 1 | 1007.0 |
| 20260505174600 | 51 | 198 | 1.7 | 5.2 | 0.01 | 0.06 | 0.06 | 1 | 1007.2 |
| 20260505173100 | 52 | 192 | 1.7 | 7.0 | 0.01 | 0.06 | 0.06 | 1 | 1007.3 |
| 20260505171555 | 52 | 215 | 1.7 | 3.5 | 0.02 | 0.06 | 0.06 | 1 | 1007.0 |
| 20260505170050 | 52 | 218 | 1.7 | 4.3 | 0.04 | 0.06 | 0.06 | 1 | 1007.0 |
| 20260505164556 | 52 | 158 | 0.9 | 2.6 | 0.05 | 0.06 | 0.06 | 1 | 1006.7 |
| 20260505163044 | 51 | 216 | 0.0 | 2.6 | 0.06 | 0.06 | 0.06 | 1 | 1006.6 |
| 20260505161549 | 51 | 249 | 1.7 | 8.7 | 0.06 | 0.06 | 0.06 | 1 | 1006.6 |
| 20260505153025 | 54 | 283 | 4.3 | 11.3 | 0.00 | 0.00 | 0.00 | 18 | 1006.0 |
| 20260505151520 | 56 | 287 | 2.6 | 10.4 | 0.00 | 0.00 | 0.00 | 35 | 1005.8 |
| 20260505124547 | 57 | 45 | 2.6 | 4.3 | 0.00 | 0.00 | 0.00 | 1 | 1006.0 |
| 20260505123038 | 57 | 35 | 1.7 | 7.0 | 0.00 | 0.00 | 0.00 | 1 | 1006.1 |
| 20260505121535 | 57 | 95 | 1.7 | 4.3 | 0.00 | 0.00 | 0.00 | 1 | 1005.9 |
| 20260505120037 | 56 | 40 | 1.7 | 3.5 | 0.00 | 0.00 | 0.00 | 1 | 1006.2 |
| 20260505114525 | 55 | 16 | 0.9 | 4.3 | 0.00 | 0.00 | 0.00 | 1 | 1006.3 |
| 20260505113022 | 54 | 31 | 0.0 | 5.2 | 0.00 | 0.00 | 0.00 | 1 | 1006.3 |
| 20260505111518 | 55 | 85 | 3.5 | 5.2 | 0.00 | 0.00 | 0.00 | 1 | 1006.3 |
| 20260505101507 | 53 | 40 | 0.0 | 3.5 | 0.00 | 0.00 | 0.00 | 1 | 1006.5 |
| 20260505100006 | 53 | 111 | 0.0 | 1.7 | 0.00 | 0.00 | 0.00 | 1 | 1006.5 |
| 20260505094559 | 52 | 162 | 0.0 | 0.9 | 0.00 | 0.00 | 0.00 | 1 | 1006.4 |
| 20260505093103 | 52 | 162 | 0.0 | 0.9 | 0.00 | 0.00 | 0.00 | 1 | 1006.5 |
| 20260505091549 | 51 | 162 | 0.0 | 0.9 | 0.00 | 0.00 | 0.00 | 1 | 1006.4 |
| 20260505090046 | 50 | 162 | 0.0 | 1.7 | 0.00 | 0.00 | 0.00 | 1 | 1006.5 |
| 20260505084547 | 50 | 164 | 0.0 | 2.6 | 0.00 | 0.00 | 0.00 | 1 | 1006.6 |
| 20260505083047 | 50 | 160 | 0.0 | 0.9 | 0.00 | 0.00 | 0.00 | 1 | 1006.6 |
| 20260505081533 | 50 | 158 | 1.7 | 3.5 | 0.00 | 0.00 | 0.00 | 1 | 1006.8 |
| 20260505080028 | 50 | 88 | 0.9 | 2.6 | 0.00 | 0.00 | 0.00 | 1 | 1006.8 |
| 20260505074525 | 50 | 111 | 0.0 | 0.0 | 0.00 | 0.00 | 0.00 | 1 | 1006.9 |
| 20260505073024 | 50 | 111 | 0.0 | 1.7 | 0.00 | 0.00 | 0.00 | 1 | 1007.2 |
| 20260505071519 | 50 | 111 | 0.0 | 0.0 | 0.00 | 0.00 | 0.00 | 1 | 1007.3 |
| 20260505070014 | 50 | 111 | 0.0 | 1.7 | 0.00 | 0.00 | 0.00 | 1 | 1007.5 |
| 20260505064510 | 50 | 111 | 0.0 | 2.6 | 0.00 | 0.00 | 0.00 | 1 | 1007.5 |
| 20260505063010 | 51 | 136 | 0.9 | 2.6 | 0.00 | 0.00 | 0.00 | 1 | 1007.5 |
| 20260505061510 | 50 | 57 | 0.0 | 0.0 | 0.00 | 0.00 | 0.00 | 1 | 1007.5 |
| 20260505060001 | 50 | 106 | 0.0 | 0.0 | 0.00 | 0.00 | 0.00 | 1 | 1007.5 |
| 20260505054559 | 50 | 106 | 0.0 | 0.0 | 0.00 | 0.00 | 0.00 | 1 | 1007.5 |
| 20260505053113 | 49 | 222 | 0.0 | 0.0 | 0.00 | 0.00 | 0.00 | 1 | 1007.3 |
| 20260505051550 | 49 | 222 | 0.0 | 0.0 | 0.00 | 0.00 | 0.00 | 1 | 1007.3 |
| 20260505041541 | 48 | 301 | 0.0 | 3.5 | 0.00 | 0.00 | 0.00 | 1 | 1007.4 |
| 20260505040029 | 48 | 284 | 0.0 | 0.9 | 0.00 | 0.00 | 0.00 | 1 | 1007.4 |
| 20260505034528 | 48 | 284 | 0.0 | 0.0 | 0.00 | 0.00 | 0.00 | 1 | 1007.3 |
| 20260505033022 | 48 | 284 | 0.0 | 0.0 | 0.00 | 0.00 | 0.00 | 1 | 1007.4 |
| 20260505031517 | 47 | 284 | 0.0 | 0.0 | 0.00 | 0.00 | 0.00 | 1 | 1007.6 |
| 20260505030013 | 47 | 285 | 0.0 | 0.0 | 0.00 | 0.00 | 0.00 | 1 | 1007.8 |
| 20260505024510 | 47 | 285 | 0.0 | 0.0 | 0.00 | 0.00 | 0.00 | 1 | 1007.8 |
| 20260505023006 | 47 | 285 | 0.0 | 0.0 | 0.00 | 0.00 | 0.00 | 1 | 1007.9 |
| 20260505021502 | 47 | 285 | 0.0 | 0.0 | 0.00 | 0.00 | 0.00 | 1 | 1008.1 |
| 20260505020100 | 47 | 283 | 0.0 | 0.0 | 0.00 | 0.00 | 0.00 | 1 | 1008.1 |
| 20260505014554 | 47 | 283 | 0.0 | 0.0 | 0.00 | 0.00 | 0.00 | 1 | 1008.0 |
| 20260505013051 | 47 | 283 | 0.0 | 0.0 | 0.00 | 0.00 | 0.00 | 1 | 1008.2 |